Nassau, Bahamas

3:21 AM EDT on March 25, 2017 (GMT -0400)
Nassau International

Weather History for MYNN - April, 2013

Change the Weather History Date:

Thursday, April 4, 2013

  Actual Average Record
Temperature  
Mean Temperature 78 °F -  
Max Temperature 83 °F 82 °F 89 °F (2009)
Min Temperature 72 °F 67 °F 59 °F (2004)
Cooling Degree Days 12    
Growing Degree Days 28 (Base 50)    
Moisture  
Dew Point 70 °F    
Average Humidity 77    
Maximum Humidity 91    
Minimum Humidity 56    
Precipitation  
Precipitation 0.00 in 0.08 in - ()
Sea Level Pressure  
Sea Level Pressure 30.04 in    
Wind  
Wind Speed 8 mph ()    
Max Wind Speed 16 mph    
Max Gust Speed -    
Visibility 7.2 miles    
Events      
Averages and records for this station are not official NWS values.
T = Trace of Precipitation, MM = Missing Value Source: Averaged Metar Reports

Daily Weather History Graph

Daily Weather History Graph

Search for Another Location

Airport or City:

Trip Planner

Search our weather history database for the weather conditions in past years. The results will help you decide how hot, cold, wet, or windy it might be!

Date:

Astronomy

Apr. 04, 2013 Rise Set
Actual Time 6:58 AM EDT 7:27 PM EDT
Civil Twilight 6:35 AM EDT 7:50 PM EDT
Nautical Twilight 6:08 AM EDT 8:17 PM EDT
Astronomical Twilight 5:40 AM EDT 8:45 PM EDT
Moon 2:49 AM EDT (4/4) 2:16 PM EDT (4/4)
Length of Visible Light 13h 15m
Length of Day
12h 29m
Waning Crescent, 34% of the Moon is Illuminated
Apr 4
Waning Crescent
Apr 10
New
Apr 18
First Quarter
Apr 25
Full
May 2
Last Quarter

Hourly Weather History & Observations

Time (EDT) Temp. Heat Index Dew Point Humidity Pressure Visibility Wind Dir Wind Speed Gust Speed Precip Events Conditions
12:00 AM 73.4 °F - 68.0 °F 83% 30.09 in 6.2 mi East 4.6 mph - N/A   Partly Cloudy
1:00 AM 73.4 °F - 68.0 °F 83% 30.08 in 6.2 mi ESE 4.6 mph - N/A   Partly Cloudy
2:00 AM 74 °F - 68 °F 75% 30.07 in 9 mi East 5.8 mph - -   Scattered Clouds
2:00 AM 73.4 °F - 68.0 °F 83% 30.07 in 6.2 mi East 5.8 mph - N/A   Partly Cloudy
3:00 AM 73.4 °F - 68.0 °F 83% 30.06 in - East 5.8 mph - N/A   Partly Cloudy
4:00 AM 73.4 °F - 68.0 °F 83% 30.05 in - ESE 5.8 mph - N/A   Partly Cloudy
5:00 AM 73 °F - 67 °F 76% 30.04 in 9 mi ESE 8.1 mph - -   Scattered Clouds
5:00 AM 73.4 °F - 68.0 °F 83% 30.04 in - ESE 8.1 mph - N/A   Partly Cloudy
6:00 AM 73.4 °F - 66.2 °F 78% 30.02 in - ESE 8.1 mph - N/A   Partly Cloudy
7:00 AM 73.4 °F - 68.0 °F 83% 30.03 in - SE 9.2 mph - N/A   Partly Cloudy
8:00 AM 76 °F - 67 °F 65% 30.07 in - ESE 11.5 mph - -   Scattered Clouds
8:00 AM 75.2 °F - 66.2 °F 73% 30.07 in 6.2 mi ESE 11.5 mph - N/A   Scattered Clouds
9:00 AM 77.0 °F - 66.2 °F 69% 30.09 in 6.2 mi SE 13.8 mph - N/A   Scattered Clouds
10:00 AM 77.0 °F - 69.8 °F 78% 30.09 in 6.2 mi SE 11.5 mph - N/A   Scattered Clouds
10:52 AM - - - N/A% - - North - - N/A   Unknown
11:00 AM 80.6 °F 84.6 °F 71.6 °F 74% 30.09 in 6.2 mi SE 9.2 mph - N/A   Scattered Clouds
12:00 PM 78.8 °F - 69.8 °F 74% 30.08 in 6.2 mi SE 13.8 mph - N/A   Scattered Clouds
1:00 PM 80.6 °F 84.6 °F 71.6 °F 74% 30.06 in 6.2 mi ESE 16.1 mph - N/A   Scattered Clouds
2:00 PM 83 °F - 70 °F 56% 30.04 in 9 mi ESE 13.8 mph - -   Partly Cloudy
2:00 PM 82.4 °F 86.3 °F 69.8 °F 66% 30.04 in 6.2 mi SE 13.8 mph - N/A   Scattered Clouds
3:00 PM 80.6 °F 83.9 °F 69.8 °F 70% 30.01 in - SSE 12.7 mph - N/A   Scattered Clouds
4:00 PM 80.6 °F 84.6 °F 71.6 °F 74% 30.01 in - SSE 12.7 mph - N/A   Mostly Cloudy
5:00 PM 81 °F - 73 °F 70% 30.00 in 9 mi SSE 13.8 mph - -   Partly Cloudy
5:00 PM 80.6 °F 85.4 °F 73.4 °F 79% 30.00 in - SSE 13.8 mph - N/A   Mostly Cloudy
6:00 PM 78.8 °F - 71.6 °F 78% 30.00 in - ESE 9.2 mph - N/A   Mostly Cloudy
7:00 PM 77.0 °F - 71.6 °F 83% 30.01 in - East 5.8 mph - N/A   Mostly Cloudy
8:00 PM 78 °F - 73 °F 80% 30.03 in 9 mi SE 9.2 mph - -  
8:00 PM 78.8 °F - 73.4 °F 83% 30.02 in - SE 9.2 mph - N/A   Scattered Clouds
9:00 PM 77.0 °F - 71.6 °F 83% 30.03 in - SE 9.2 mph - N/A   Scattered Clouds
10:00 PM 77.0 °F - 71.6 °F 83% 30.02 in - SE 3.5 mph - N/A   Scattered Clouds
11:00 PM 76 °F - 74 °F 91% 29.99 in 9 mi ESE 13.8 mph - -   Partly Cloudy
11:00 PM 77.0 °F - 73.4 °F 89% 29.99 in 6.2 mi ESE 13.8 mph - N/A   Scattered Clouds